Time,TemperatureF,DewpointF,PressureIn,WindDirection,WindDirectionDegrees,WindSpeedMPH,WindSpeedGustMPH,Humidity,HourlyPrecipIn,Conditions,Clouds,dailyrainin,SoftwareType,DateUTC
2013-05-30 00:00:00,42.1,33.4,30.02,ENE,66,0.0,3.1,71,0.00,,SCT,0.00,VWS V14.01,2013-05-30 07:00:00,
2013-05-30 00:05:00,41.7,33.0,30.02,SE,130,0.0,0.0,71,0.00,,SCT,0.00,VWS V14.01,2013-05-30 07:05:00,
2013-05-30 00:10:00,41.7,33.0,30.02,ENE,68,0.0,0.0,71,0.00,,SCT,0.00,VWS V14.01,2013-05-30 07:10:00,
2013-05-30 00:15:00,41.7,33.4,30.02,ESE,102,0.0,0.0,72,0.00,,SCT,0.00,VWS V14.01,2013-05-30 07:15:00,
2013-05-30 00:20:00,41.5,33.2,30.02,ESE,102,0.0,0.0,72,0.00,,SCT,0.00,VWS V14.01,2013-05-30 07:20:00,
2013-05-30 00:25:00,41.5,33.2,30.02,ESE,102,0.0,0.0,72,0.00,,SCT,0.00,VWS V14.01,2013-05-30 07:25:00,
2013-05-30 00:30:00,41.4,33.0,30.02,ESE,102,0.0,0.0,72,0.00,,SCT,0.00,VWS V14.01,2013-05-30 07:30:00,
2013-05-30 00:35:00,41.2,32.8,30.02,ESE,102,0.0,0.0,72,0.00,,SCT,0.00,VWS V14.01,2013-05-30 07:35:00,
2013-05-30 00:41:00,41.2,32.5,30.02,SE,128,6.3,6.3,71,0.00,,SCT,0.00,VWS V14.01,2013-05-30 07:41:00,
2013-05-30 00:45:00,41.2,31.4,30.02,SSE,159,0.0,6.3,68,0.00,,SCT,0.00,VWS V14.01,2013-05-30 07:45:00,
2013-05-30 00:46:00,41.2,31.4,30.02,ESE,111,0.0,0.0,68,0.00,,SCT,0.00,VWS V14.01,2013-05-30 07:46:00,
2013-05-30 00:51:00,41.2,31.8,30.02,ESE,105,0.0,0.0,69,0.00,,SCT,0.00,VWS V14.01,2013-05-30 07:51:00,
2013-05-30 00:56:00,40.8,32.2,30.02,SE,130,3.1,4.0,71,0.00,,SCT,0.00,VWS V14.01,2013-05-30 07:56:00,
2013-05-30 01:00:00,40.6,32.0,30.02,SSE,156,2.2,5.4,71,0.00,,SCT,0.00,VWS V14.01,2013-05-30 08:00:00,
2013-05-30 01:01:00,40.6,32.0,30.02,SSE,156,0.0,2.7,71,0.00,,SCT,0.00,VWS V14.01,2013-05-30 08:01:00,
2013-05-30 01:06:00,40.5,31.8,30.02,SSE,166,0.0,2.7,71,0.00,,SCT,0.00,VWS V14.01,2013-05-30 08:06:00,
2013-05-30 01:11:00,40.3,31.6,30.02,SE,128,3.1,5.4,71,0.00,,SCT,0.00,VWS V14.01,2013-05-30 08:11:00,
2013-05-30 01:15:00,40.3,31.6,30.02,East,79,0.0,5.4,71,0.00,,SCT,0.00,VWS V14.01,2013-05-30 08:15:00,
2013-05-30 01:16:00,40.3,31.6,30.02,East,79,0.0,0.0,71,0.00,,SCT,0.00,VWS V14.01,2013-05-30 08:16:00,
2013-05-30 01:21:00,40.3,32.0,30.02,East,79,0.0,0.0,72,0.00,,SCT,0.00,VWS V14.01,2013-05-30 08:21:00,
2013-05-30 01:27:00,40.1,32.2,30.02,ENE,76,0.0,0.0,73,0.00,,SCT,0.00,VWS V14.01,2013-05-30 08:27:00,
2013-05-30 01:30:00,40.1,32.2,30.02,ENE,76,0.0,0.0,73,0.00,,SCT,0.00,VWS V14.01,2013-05-30 08:30:00,
2013-05-30 01:32:00,39.9,32.0,30.02,ENE,76,0.0,0.0,73,0.00,,SCT,0.00,VWS V14.01,2013-05-30 08:32:00,
2013-05-30 01:37:00,39.9,32.3,30.02,ESE,112,0.0,0.0,74,0.00,,SCT,0.00,VWS V14.01,2013-05-30 08:37:00,
2013-05-30 01:42:00,39.6,32.3,30.02,ESE,112,0.0,0.0,75,0.00,,SCT,0.00,VWS V14.01,2013-05-30 08:42:00,
2013-05-30 01:45:00,39.4,32.1,30.02,ESE,112,0.0,0.0,75,0.00,,SCT,0.00,VWS V14.01,2013-05-30 08:45:00,
2013-05-30 01:47:00,39.4,32.5,30.02,ESE,112,0.0,0.0,76,0.00,,SCT,0.00,VWS V14.01,2013-05-30 08:47:00,
2013-05-30 01:52:00,39.2,32.3,30.02,ESE,112,0.0,0.0,76,0.00,,SCT,0.00,VWS V14.01,2013-05-30 08:52:00,
2013-05-30 01:57:00,39.2,32.6,30.02,ESE,112,0.0,0.0,77,0.00,,SCT,0.00,VWS V14.01,2013-05-30 08:57:00,
2013-05-30 02:00:00,39.0,32.4,30.02,ESE,112,0.0,0.0,77,0.00,,SCT,0.00,VWS V14.01,2013-05-30 09:00:00,
2013-05-30 02:02:00,39.0,32.4,30.02,ESE,112,0.0,0.0,77,0.00,,SCT,0.00,VWS V14.01,2013-05-30 09:02:00,
2013-05-30 02:07:00,38.8,32.3,30.02,ESE,112,0.0,0.0,77,0.00,,SCT,0.00,VWS V14.01,2013-05-30 09:07:00,
2013-05-30 02:12:00,38.8,32.3,30.02,ESE,112,0.0,0.0,77,0.00,,SCT,0.00,VWS V14.01,2013-05-30 09:12:00,
2013-05-30 02:15:00,38.7,32.1,30.02,ESE,112,0.0,0.0,77,0.00,,SCT,0.00,VWS V14.01,2013-05-30 09:15:00,
2013-05-30 02:17:00,38.7,32.4,30.02,ESE,112,0.0,0.0,78,0.00,,SCT,0.00,VWS V14.01,2013-05-30 09:17:00,
2013-05-30 02:23:00,38.5,32.2,30.02,NE,50,0.0,0.0,78,0.00,,SCT,0.00,VWS V14.01,2013-05-30 09:23:00,
2013-05-30 02:28:00,38.3,32.0,30.02,NE,48,0.0,0.0,78,0.00,,SCT,0.00,VWS V14.01,2013-05-30 09:28:00,
2013-05-30 02:30:00,38.1,32.2,30.02,NE,48,0.0,0.0,79,0.00,,SCT,0.00,VWS V14.01,2013-05-30 09:30:00,
2013-05-30 02:33:00,38.1,32.2,30.02,NE,48,0.0,0.0,79,0.00,,SCT,0.00,VWS V14.01,2013-05-30 09:33:00,
2013-05-30 02:38:00,38.1,32.2,30.02,NE,48,0.0,0.0,79,0.00,,SCT,0.00,VWS V14.01,2013-05-30 09:38:00,
2013-05-30 02:43:00,37.9,32.3,30.02,NE,48,0.0,0.0,80,0.00,,SCT,0.00,VWS V14.01,2013-05-30 09:43:00,
2013-05-30 02:45:00,37.9,32.3,30.02,NE,48,0.0,0.0,80,0.00,,SCT,0.00,VWS V14.01,2013-05-30 09:45:00,
2013-05-30 02:48:00,37.9,32.3,30.02,NE,48,0.0,0.0,80,0.00,,SCT,0.00,VWS V14.01,2013-05-30 09:48:00,
2013-05-30 02:53:00,37.9,32.3,30.02,NE,48,0.0,0.0,80,0.00,,SCT,0.00,VWS V14.01,2013-05-30 09:53:00,
2013-05-30 02:58:00,37.9,32.6,30.02,NE,48,0.0,0.0,81,0.00,,SCT,0.00,VWS V14.01,2013-05-30 09:58:00,
2013-05-30 03:00:00,37.9,32.6,30.02,NE,48,0.0,0.0,81,0.00,,SCT,0.00,VWS V14.01,2013-05-30 10:00:00,
2013-05-30 03:03:00,37.9,32.6,30.02,NE,48,0.0,0.0,81,0.00,,SCT,0.00,VWS V14.01,2013-05-30 10:03:00,
2013-05-30 03:08:00,37.9,32.6,30.02,NE,48,0.0,0.0,81,0.00,,SCT,0.00,VWS V14.01,2013-05-30 10:08:00,
2013-05-30 03:13:00,37.8,32.8,30.02,NE,48,0.0,0.0,82,0.00,,SCT,0.00,VWS V14.01,2013-05-30 10:13:00,
2013-05-30 03:15:00,37.6,32.6,30.02,NE,48,0.0,0.0,82,0.00,,SCT,0.00,VWS V14.01,2013-05-30 10:15:00,
2013-05-30 03:18:00,37.6,32.9,30.02,NE,48,0.0,0.0,83,0.00,,SCT,0.00,VWS V14.01,2013-05-30 10:18:00,
2013-05-30 03:23:00,37.4,33.0,30.02,NE,48,0.0,0.0,84,0.00,,SCT,0.00,VWS V14.01,2013-05-30 10:23:00,
2013-05-30 03:29:00,37.4,33.0,30.02,NE,48,0.0,0.0,84,0.00,,SCT,0.00,VWS V14.01,2013-05-30 10:29:00,
2013-05-30 03:30:00,37.4,33.0,30.02,NE,48,0.0,0.0,84,0.00,,SCT,0.00,VWS V14.01,2013-05-30 10:30:00,
2013-05-30 03:34:00,37.0,32.7,30.02,NE,48,0.0,0.0,84,0.00,,SCT,0.00,VWS V14.01,2013-05-30 10:34:00,
2013-05-30 03:39:00,36.9,32.5,30.02,NE,48,0.0,0.0,84,0.00,,SCT,0.00,VWS V14.01,2013-05-30 10:39:00,
2013-05-30 03:44:00,36.9,32.5,30.02,NE,48,0.0,0.0,84,0.00,,SCT,0.00,VWS V14.01,2013-05-30 10:44:00,
2013-05-30 03:45:00,36.9,32.5,30.02,NE,48,0.0,0.0,84,0.00,,SCT,0.00,VWS V14.01,2013-05-30 10:45:00,
2013-05-30 03:49:00,36.7,32.3,30.02,ESE,121,0.0,0.0,84,0.00,,SCT,0.00,VWS V14.01,2013-05-30 10:49:00,
2013-05-30 03:54:00,36.7,32.3,30.02,SE,134,2.2,4.5,84,0.00,,SCT,0.00,VWS V14.01,2013-05-30 10:54:00,
2013-05-30 03:59:00,36.7,32.0,30.02,SE,133,0.0,4.5,83,0.00,,SCT,0.00,VWS V14.01,2013-05-30 10:59:00,
2013-05-30 04:00:00,36.7,32.0,30.02,SE,133,0.0,4.5,83,0.00,,SCT,0.00,VWS V14.01,2013-05-30 11:00:00,
2013-05-30 04:04:00,36.5,31.8,30.02,SE,133,0.0,0.0,83,0.00,,SCT,0.00,VWS V14.01,2013-05-30 11:04:00,
2013-05-30 04:09:00,36.7,32.0,30.02,East,93,0.0,0.0,83,0.00,,SCT,0.00,VWS V14.01,2013-05-30 11:09:00,
2013-05-30 04:14:00,36.5,31.8,30.02,ESE,103,0.0,0.0,83,0.00,,SCT,0.00,VWS V14.01,2013-05-30 11:14:00,
2013-05-30 04:15:00,36.5,31.8,30.02,ESE,103,0.0,0.0,83,0.00,,SCT,0.00,VWS V14.01,2013-05-30 11:15:00,
2013-05-30 04:19:00,36.3,31.7,30.02,ENE,78,3.1,3.1,83,0.00,,SCT,0.00,VWS V14.01,2013-05-30 11:19:00,
2013-05-30 04:24:00,36.3,31.7,30.02,ENE,78,0.0,4.0,83,0.00,,SCT,0.00,VWS V14.01,2013-05-30 11:24:00,
2013-05-30 04:30:00,36.3,31.7,30.02,East,84,0.0,4.0,83,0.00,,SCT,0.00,VWS V14.01,2013-05-30 11:30:00,
2013-05-30 04:35:00,36.3,31.7,30.05,ENE,78,0.0,0.0,83,0.00,,SCT,0.00,VWS V14.01,2013-05-30 11:35:00,
2013-05-30 04:40:00,36.3,31.7,30.05,East,93,0.0,0.0,83,0.00,,SCT,0.00,VWS V14.01,2013-05-30 11:40:00,
2013-05-30 04:45:00,36.3,31.7,30.05,ENE,71,0.0,0.0,83,0.00,,SCT,0.00,VWS V14.01,2013-05-30 11:45:00,
2013-05-30 04:50:00,36.3,31.4,30.02,ENE,70,0.0,0.0,82,0.00,,SCT,0.00,VWS V14.01,2013-05-30 11:50:00,
2013-05-30 04:55:00,36.3,31.4,30.02,ENE,70,0.0,0.0,82,0.00,,SCT,0.00,VWS V14.01,2013-05-30 11:55:00,
2013-05-30 05:00:00,36.3,31.4,30.02,East,92,0.0,0.0,82,0.00,,SCT,0.00,VWS V14.01,2013-05-30 12:00:00,
2013-05-30 05:05:00,36.5,31.5,30.05,East,92,0.0,0.0,82,0.00,,SCT,0.00,VWS V14.01,2013-05-30 12:05:00,
2013-05-30 05:10:00,36.5,31.2,30.05,East,92,0.0,0.0,81,0.00,,SCT,0.00,VWS V14.01,2013-05-30 12:10:00,
2013-05-30 05:15:00,36.3,31.1,30.05,East,92,0.0,0.0,81,0.00,,SCT,0.00,VWS V14.01,2013-05-30 12:15:00,
2013-05-30 05:20:00,36.3,31.1,30.05,East,92,0.0,0.0,81,0.00,,SCT,0.00,VWS V14.01,2013-05-30 12:20:00,
2013-05-30 05:25:00,36.1,30.9,30.05,East,92,0.0,0.0,81,0.00,,SCT,0.00,VWS V14.01,2013-05-30 12:25:00,
2013-05-30 05:30:00,36.1,30.9,30.05,East,92,0.0,0.0,81,0.00,,SCT,0.00,VWS V14.01,2013-05-30 12:30:00,
2013-05-30 05:36:00,36.1,30.9,30.05,East,92,0.0,0.0,81,0.00,,SCT,0.00,VWS V14.01,2013-05-30 12:36:00,
2013-05-30 05:41:00,36.1,30.9,30.05,East,92,0.0,0.0,81,0.00,,SCT,0.00,VWS V14.01,2013-05-30 12:41:00,
2013-05-30 05:45:00,36.0,30.7,30.05,East,92,0.0,0.0,81,0.00,,SCT,0.00,VWS V14.01,2013-05-30 12:45:00,
2013-05-30 05:46:00,35.8,30.5,30.05,East,92,0.0,0.0,81,0.00,,SCT,0.00,VWS V14.01,2013-05-30 12:46:00,
2013-05-30 05:51:00,35.8,30.5,30.05,East,92,0.0,0.0,81,0.00,,SCT,0.00,VWS V14.01,2013-05-30 12:51:00,
2013-05-30 05:56:00,35.6,30.4,30.05,SE,129,0.0,0.0,81,0.00,,SCT,0.00,VWS V14.01,2013-05-30 12:56:00,
2013-05-30 06:00:00,35.4,30.5,30.05,SE,129,0.0,0.0,82,0.00,,SCT,0.00,VWS V14.01,2013-05-30 13:00:00,
2013-05-30 06:01:00,35.4,30.5,30.05,SE,129,0.0,0.0,82,0.00,,SCT,0.00,VWS V14.01,2013-05-30 13:01:00,
2013-05-30 06:06:00,35.2,30.6,30.05,SSE,160,0.0,0.0,83,0.00,,SCT,0.00,VWS V14.01,2013-05-30 13:06:00,
2013-05-30 06:11:00,35.2,30.9,30.05,ESE,105,0.0,4.0,84,0.00,,SCT,0.00,VWS V14.01,2013-05-30 13:11:00,
2013-05-30 06:15:00,35.2,30.9,30.05,ESE,112,0.0,4.0,84,0.00,,SCT,0.00,VWS V14.01,2013-05-30 13:15:00,
2013-05-30 06:16:00,35.2,30.9,30.05,ESE,113,0.0,0.0,84,0.00,,SCT,0.00,VWS V14.01,2013-05-30 13:16:00,
2013-05-30 06:21:00,34.9,30.5,30.05,ESE,113,0.0,0.0,84,0.00,,SCT,0.00,VWS V14.01,2013-05-30 13:21:00,
2013-05-30 06:26:00,34.9,30.8,30.05,West,264,0.0,0.0,85,0.00,,SCT,0.00,VWS V14.01,2013-05-30 13:26:00,
2013-05-30 06:30:00,34.9,30.8,30.05,SSW,201,2.7,3.1,85,0.00,,SCT,0.00,VWS V14.01,2013-05-30 13:30:00,
2013-05-30 06:31:00,34.9,31.1,30.05,South,174,0.0,2.7,86,0.00,,SCT,0.00,VWS V14.01,2013-05-30 13:31:00,
2013-05-30 06:37:00,34.9,31.1,30.05,South,174,0.0,2.7,86,0.00,,SCT,0.00,VWS V14.01,2013-05-30 13:37:00,
2013-05-30 06:42:00,34.9,31.1,30.05,South,174,0.0,2.7,86,0.00,,SCT,0.00,VWS V14.01,2013-05-30 13:42:00,
2013-05-30 06:45:00,34.9,31.1,30.05,South,181,0.0,2.7,86,0.00,,SCT,0.00,VWS V14.01,2013-05-30 13:45:00,
2013-05-30 06:47:00,34.9,31.1,30.05,SW,219,0.0,0.0,86,0.00,,SCT,0.00,VWS V14.01,2013-05-30 13:47:00,
2013-05-30 06:52:00,35.1,31.0,30.05,SSW,208,0.0,0.0,85,0.00,,SCT,0.00,VWS V14.01,2013-05-30 13:52:00,
2013-05-30 06:57:00,35.1,31.0,30.05,South,173,0.0,0.0,85,0.00,,SCT,0.00,VWS V14.01,2013-05-30 13:57:00,
2013-05-30 07:00:00,35.4,31.4,30.05,South,189,0.0,0.0,85,0.00,,SCT,0.00,VWS V14.01,2013-05-30 14:00:00,
2013-05-30 07:02:00,35.4,31.4,30.05,SE,133,2.7,4.0,85,0.00,,SCT,0.00,VWS V14.01,2013-05-30 14:02:00,
2013-05-30 07:07:00,35.8,31.4,30.05,SE,145,2.7,5.4,84,0.00,,SCT,0.00,VWS V14.01,2013-05-30 14:07:00,
2013-05-30 07:12:00,36.1,31.8,30.05,South,176,0.0,5.4,84,0.00,,SCT,0.00,VWS V14.01,2013-05-30 14:12:00,
2013-05-30 07:15:00,36.3,32.0,30.05,WSW,240,6.3,6.3,84,0.00,,SCT,0.00,VWS V14.01,2013-05-30 14:15:00,
2013-05-30 07:17:00,36.5,31.8,30.05,WSW,247,0.0,6.3,83,0.00,,SCT,0.00,VWS V14.01,2013-05-30 14:17:00,
2013-05-30 07:22:00,36.9,31.6,30.05,SSW,196,0.0,6.3,81,0.00,,SCT,0.00,VWS V14.01,2013-05-30 14:22:00,
2013-05-30 07:27:00,37.0,31.5,30.05,SSW,197,0.0,6.3,80,0.00,,SCT,0.00,VWS V14.01,2013-05-30 14:27:00,
2013-05-30 07:30:00,37.4,31.5,30.05,SSE,156,0.0,6.3,79,0.00,,SCT,0.00,VWS V14.01,2013-05-30 14:30:00,
2013-05-30 07:32:00,37.6,31.4,30.05,South,169,0.0,0.0,78,0.00,,SCT,0.00,VWS V14.01,2013-05-30 14:32:00,
2013-05-30 07:38:00,37.9,31.4,30.05,ESE,115,5.4,5.4,77,0.00,,SCT,0.00,VWS V14.01,2013-05-30 14:38:00,
2013-05-30 07:43:00,38.3,31.4,30.05,WSW,243,0.0,6.3,76,0.00,,SCT,0.00,VWS V14.01,2013-05-30 14:43:00,
2013-05-30 07:45:00,38.5,31.3,30.05,South,187,0.0,6.3,75,0.00,,SCT,0.00,VWS V14.01,2013-05-30 14:45:00,
2013-05-30 07:48:00,38.7,31.4,30.05,South,171,3.1,4.9,75,0.00,,SCT,0.00,VWS V14.01,2013-05-30 14:48:00,
2013-05-30 07:53:00,38.8,30.9,30.05,SW,227,0.0,5.4,73,0.00,,SCT,0.00,VWS V14.01,2013-05-30 14:53:00,
2013-05-30 07:58:00,39.2,30.6,30.05,WNW,302,0.0,5.4,71,0.00,,SCT,0.00,VWS V14.01,2013-05-30 14:58:00,
2013-05-30 08:00:00,39.2,30.2,30.05,SSW,209,0.0,5.4,70,0.00,,SCT,0.00,VWS V14.01,2013-05-30 15:00:00,
2013-05-30 08:03:00,39.4,30.4,30.05,South,189,3.6,5.4,70,0.00,,SCT,0.00,VWS V14.01,2013-05-30 15:03:00,
2013-05-30 08:08:00,39.6,30.6,30.05,SE,140,0.0,5.4,70,0.00,,SCT,0.00,VWS V14.01,2013-05-30 15:08:00,
2013-05-30 08:13:00,39.9,30.6,30.05,NW,304,0.0,5.4,69,0.00,,SCT,0.00,VWS V14.01,2013-05-30 15:13:00,
2013-05-30 08:15:00,39.9,30.6,30.05,WNW,282,0.0,5.4,69,0.00,,SCT,0.00,VWS V14.01,2013-05-30 15:15:00,
2013-05-30 08:18:00,40.1,30.8,30.05,SSE,150,0.0,0.0,69,0.00,,SCT,0.00,VWS V14.01,2013-05-30 15:18:00,
2013-05-30 08:23:00,40.5,30.8,30.08,WNW,288,0.0,4.9,68,0.00,,SCT,0.00,VWS V14.01,2013-05-30 15:23:00,
2013-05-30 08:28:00,40.6,30.9,30.08,ESE,122,0.0,4.9,68,0.00,,SCT,0.00,VWS V14.01,2013-05-30 15:28:00,
2013-05-30 08:30:00,41.0,31.3,30.08,East,87,0.0,4.9,68,0.00,,SCT,0.00,VWS V14.01,2013-05-30 15:30:00,
2013-05-30 08:34:00,41.5,31.4,30.08,SSW,212,4.9,5.4,67,0.00,,SCT,0.00,VWS V14.01,2013-05-30 15:34:00,
2013-05-30 08:39:00,41.7,30.8,30.08,West,263,0.0,5.4,65,0.00,,SCT,0.00,VWS V14.01,2013-05-30 15:39:00,
2013-05-30 08:44:00,41.9,30.6,30.08,West,276,0.0,5.4,64,0.00,,SCT,0.00,VWS V14.01,2013-05-30 15:44:00,
2013-05-30 08:45:00,41.9,30.6,30.08,West,277,0.0,5.4,64,0.00,,SCT,0.00,VWS V14.01,2013-05-30 15:45:00,
2013-05-30 08:49:00,42.1,30.8,30.08,SE,125,0.0,0.0,64,0.00,,SCT,0.00,VWS V14.01,2013-05-30 15:49:00,
2013-05-30 08:54:00,42.4,30.8,30.08,WSW,246,0.0,0.0,63,0.00,,SCT,0.00,VWS V14.01,2013-05-30 15:54:00,
2013-05-30 08:59:00,43.0,31.3,30.08,WSW,244,0.0,0.0,63,0.00,,SCT,0.00,VWS V14.01,2013-05-30 15:59:00,
2013-05-30 09:00:00,43.0,31.3,30.08,WSW,244,0.0,0.0,63,0.00,,SCT,0.00,VWS V14.01,2013-05-30 16:00:00,
2013-05-30 09:04:00,43.3,31.6,30.08,SSW,213,0.0,0.0,63,0.00,,SCT,0.00,VWS V14.01,2013-05-30 16:04:00,
2013-05-30 09:09:00,43.5,30.2,30.08,West,280,0.0,0.0,59,0.00,,SCT,0.00,VWS V14.01,2013-05-30 16:09:00,
2013-05-30 09:14:00,43.7,31.5,30.08,NNW,341,0.0,0.0,62,0.00,,SCT,0.00,VWS V14.01,2013-05-30 16:14:00,
2013-05-30 09:15:00,43.7,31.5,30.08,NNW,338,0.0,0.0,62,0.00,,SCT,0.00,VWS V14.01,2013-05-30 16:15:00,
2013-05-30 09:19:00,43.9,31.7,30.05,NNW,340,0.0,8.3,62,0.00,,SCT,0.00,VWS V14.01,2013-05-30 16:19:00,
2013-05-30 09:24:00,44.4,31.0,30.05,SE,125,0.0,8.3,59,0.00,,SCT,0.00,VWS V14.01,2013-05-30 16:24:00,
2013-05-30 09:30:00,45.0,30.2,30.05,South,188,0.0,8.3,56,0.00,,SCT,0.00,VWS V14.01,2013-05-30 16:30:00,
2013-05-30 09:35:00,45.0,29.8,30.08,SE,146,0.0,0.0,55,0.00,,SCT,0.00,VWS V14.01,2013-05-30 16:35:00,
2013-05-30 09:40:00,44.8,30.9,30.08,SE,146,0.0,0.0,58,0.00,,SCT,0.00,VWS V14.01,2013-05-30 16:40:00,
2013-05-30 09:45:00,44.6,31.2,30.08,South,175,0.0,0.0,59,0.00,,SCT,0.00,VWS V14.01,2013-05-30 16:45:00,
2013-05-30 09:50:00,44.8,32.2,30.08,South,175,0.0,0.0,61,0.00,,SCT,0.00,VWS V14.01,2013-05-30 16:50:00,
2013-05-30 09:55:00,45.7,32.2,30.08,South,175,0.0,0.0,59,0.00,,SCT,0.00,VWS V14.01,2013-05-30 16:55:00,
2013-05-30 10:00:00,46.4,30.7,30.08,NW,324,0.0,0.0,54,0.00,,SCT,0.00,VWS V14.01,2013-05-30 17:00:00,
2013-05-30 10:05:00,47.1,31.8,30.08,ESE,123,0.0,0.0,55,0.00,,SCT,0.00,VWS V14.01,2013-05-30 17:05:00,
2013-05-30 10:10:00,47.5,31.2,30.08,NNW,333,0.0,4.0,53,0.00,,SCT,0.00,VWS V14.01,2013-05-30 17:10:00,
2013-05-30 10:15:00,48.0,32.6,30.08,NW,318,0.0,0.0,55,0.00,,SCT,0.00,VWS V14.01,2013-05-30 17:15:00,
2013-05-30 10:20:00,48.2,31.4,30.05,NW,306,0.0,6.3,52,0.00,,SCT,0.00,VWS V14.01,2013-05-30 17:20:00,
2013-05-30 10:26:00,48.4,31.1,30.05,East,99,0.0,6.3,51,0.00,,SCT,0.00,VWS V14.01,2013-05-30 17:26:00,
2013-05-30 10:30:00,48.7,31.0,30.05,NNE,19,0.0,6.3,50,0.00,,SCT,0.00,VWS V14.01,2013-05-30 17:30:00,
2013-05-30 10:31:00,48.9,31.6,30.05,NNE,12,0.0,0.0,51,0.00,,SCT,0.00,VWS V14.01,2013-05-30 17:31:00,
2013-05-30 10:36:00,49.5,31.6,30.08,NW,316,0.0,0.0,50,0.00,,SCT,0.00,VWS V14.01,2013-05-30 17:36:00,
2013-05-30 10:41:00,49.6,30.2,30.08,ESE,108,0.0,5.8,47,0.00,,SCT,0.00,VWS V14.01,2013-05-30 17:41:00,
2013-05-30 10:45:00,50.2,30.2,30.08,ENE,63,0.0,5.8,46,0.00,,SCT,0.00,VWS V14.01,2013-05-30 17:45:00,
2013-05-30 10:46:00,50.2,30.2,30.08,ENE,63,0.0,0.0,46,0.00,,SCT,0.00,VWS V14.01,2013-05-30 17:46:00,
2013-05-30 10:51:00,50.4,30.4,30.08,SSE,150,0.0,0.0,46,0.00,,SCT,0.00,VWS V14.01,2013-05-30 17:51:00,
2013-05-30 10:56:00,49.6,30.2,30.08,NNW,337,0.0,0.0,47,0.00,,SCT,0.00,VWS V14.01,2013-05-30 17:56:00,
2013-05-30 11:00:00,49.5,30.1,30.08,North,357,0.0,0.0,47,0.00,,SCT,0.00,VWS V14.01,2013-05-30 18:00:00,
2013-05-30 11:01:00,49.6,30.2,30.08,North,357,0.0,0.0,47,0.00,,SCT,0.00,VWS V14.01,2013-05-30 18:01:00,
2013-05-30 11:06:00,50.4,30.4,30.08,North,353,0.0,0.0,46,0.00,,SCT,0.00,VWS V14.01,2013-05-30 18:06:00,
2013-05-30 11:11:00,50.4,29.3,30.08,NNW,337,0.0,0.0,44,0.00,,SCT,0.00,VWS V14.01,2013-05-30 18:11:00,
2013-05-30 11:15:00,50.5,28.9,30.08,NW,322,0.0,0.0,43,0.00,,SCT,0.00,VWS V14.01,2013-05-30 18:15:00,
2013-05-30 11:16:00,50.4,29.8,30.08,NW,322,0.0,0.0,45,0.00,,SCT,0.00,VWS V14.01,2013-05-30 18:16:00,
2013-05-30 11:21:00,51.1,30.0,30.08,ENE,58,0.0,3.6,44,0.00,,SCT,0.00,VWS V14.01,2013-05-30 18:21:00,
2013-05-30 11:27:00,52.3,30.0,30.08,NW,316,0.0,3.6,42,0.00,,SCT,0.00,VWS V14.01,2013-05-30 18:27:00,
2013-05-30 11:30:00,52.7,30.3,30.08,ESE,122,0.0,3.6,42,0.00,,SCT,0.00,VWS V14.01,2013-05-30 18:30:00,
2013-05-30 11:32:00,53.2,30.2,30.08,ENE,61,2.7,4.0,41,0.00,,SCT,0.00,VWS V14.01,2013-05-30 18:32:00,
2013-05-30 11:37:00,53.2,28.9,30.08,ESE,120,2.7,7.6,39,0.00,,SCT,0.00,VWS V14.01,2013-05-30 18:37:00,
2013-05-30 11:42:00,53.1,29.4,30.08,ESE,109,0.0,7.6,40,0.00,,SCT,0.00,VWS V14.01,2013-05-30 18:42:00,
2013-05-30 11:45:00,53.6,29.9,30.08,East,97,0.0,7.6,40,0.00,,SCT,0.00,VWS V14.01,2013-05-30 18:45:00,
2013-05-30 11:47:00,54.1,29.8,30.08,ESE,120,0.0,0.0,39,0.00,,SCT,0.00,VWS V14.01,2013-05-30 18:47:00,
2013-05-30 11:52:00,55.0,29.3,30.08,NNW,348,0.0,0.0,37,0.00,,SCT,0.00,VWS V14.01,2013-05-30 18:52:00,
2013-05-30 11:57:00,55.0,29.9,30.08,WNW,288,0.0,0.0,38,0.00,,SCT,0.00,VWS V14.01,2013-05-30 18:57:00,
2013-05-30 12:00:00,55.2,30.1,30.08,ESE,121,0.0,6.3,38,0.00,,SCT,0.00,VWS V14.01,2013-05-30 19:00:00,
2013-05-30 12:02:00,55.2,29.4,30.08,SSE,152,0.0,0.0,37,0.00,,SCT,0.00,VWS V14.01,2013-05-30 19:02:00,
2013-05-30 12:07:00,55.2,29.4,30.08,North,7,0.0,3.6,37,0.00,,SCT,0.00,VWS V14.01,2013-05-30 19:07:00,
2013-05-30 12:12:00,56.1,30.9,30.08,West,275,0.0,3.6,38,0.00,,SCT,0.00,VWS V14.01,2013-05-30 19:12:00,
2013-05-30 12:15:00,56.7,31.4,30.08,NW,323,0.0,5.4,38,0.00,,SCT,0.00,VWS V14.01,2013-05-30 19:15:00,
2013-05-30 12:17:00,56.8,30.9,30.08,North,3,0.0,5.8,37,0.00,,SCT,0.00,VWS V14.01,2013-05-30 19:17:00,
2013-05-30 12:23:00,57.4,31.3,30.08,WNW,291,0.0,5.8,37,0.00,,SCT,0.00,VWS V14.01,2013-05-30 19:23:00,
2013-05-30 12:28:00,58.1,31.3,30.08,NW,319,0.0,6.3,36,0.00,,SCT,0.00,VWS V14.01,2013-05-30 19:28:00,
2013-05-30 12:30:00,58.1,31.3,30.08,West,268,0.0,6.3,36,0.00,,SCT,0.00,VWS V14.01,2013-05-30 19:30:00,
2013-05-30 12:33:00,57.9,31.1,30.08,NE,45,0.0,6.3,36,0.00,,SCT,0.00,VWS V14.01,2013-05-30 19:33:00,
2013-05-30 12:38:00,57.0,30.4,30.08,NW,308,3.1,6.3,36,0.00,,SCT,0.00,VWS V14.01,2013-05-30 19:38:00,
2013-05-30 12:43:00,57.0,30.4,30.08,NNW,343,3.6,6.3,36,0.00,,SCT,0.00,VWS V14.01,2013-05-30 19:43:00,
2013-05-30 12:45:00,57.4,31.3,30.08,ESE,115,2.7,6.3,37,0.00,,SCT,0.00,VWS V14.01,2013-05-30 19:45:00,
2013-05-30 12:48:00,58.3,32.2,30.08,WNW,295,0.0,2.7,37,0.00,,SCT,0.00,VWS V14.01,2013-05-30 19:48:00,
2013-05-30 12:53:00,58.8,32.0,30.08,NE,37,0.0,6.3,36,0.00,,SCT,0.00,VWS V14.01,2013-05-30 19:53:00,
2013-05-30 12:58:00,58.5,31.6,30.08,NNW,341,0.0,6.3,36,0.00,,SCT,0.00,VWS V14.01,2013-05-30 19:58:00,
2013-05-30 13:00:00,58.1,31.3,30.08,SE,126,0.0,6.3,36,0.00,,SCT,0.00,VWS V14.01,2013-05-30 20:00:00,
2013-05-30 13:03:00,57.7,31.0,30.08,NNW,334,2.2,5.8,36,0.00,,SCT,0.00,VWS V14.01,2013-05-30 20:03:00,
2013-05-30 13:08:00,57.4,30.7,30.08,ESE,122,0.0,5.8,36,0.00,,SCT,0.00,VWS V14.01,2013-05-30 20:08:00,
2013-05-30 13:13:00,57.9,31.1,30.08,NNW,339,0.0,5.8,36,0.00,,SCT,0.00,VWS V14.01,2013-05-30 20:13:00,
2013-05-30 13:15:00,58.1,31.3,30.08,NW,320,0.0,7.6,36,0.00,,SCT,0.00,VWS V14.01,2013-05-30 20:15:00,
2013-05-30 13:18:00,57.9,30.5,30.08,NE,37,0.0,6.7,35,0.00,,SCT,0.00,VWS V14.01,2013-05-30 20:18:00,
2013-05-30 13:23:00,58.6,31.8,30.08,ENE,64,0.0,6.7,36,0.00,,SCT,0.00,VWS V14.01,2013-05-30 20:23:00,
2013-05-30 13:28:00,59.4,31.7,30.08,West,277,0.0,6.7,35,0.00,,SCT,0.00,VWS V14.01,2013-05-30 20:28:00,
2013-05-30 13:30:00,59.7,32.0,30.08,NNW,330,5.8,6.7,35,0.00,,SCT,0.00,VWS V14.01,2013-05-30 20:30:00,
2013-05-30 13:34:00,60.3,32.5,30.08,NNW,344,3.1,5.8,35,0.00,,SCT,0.00,VWS V14.01,2013-05-30 20:34:00,
2013-05-30 13:39:00,61.7,33.1,30.08,WSW,251,0.0,5.8,34,0.00,,SCT,0.00,VWS V14.01,2013-05-30 20:39:00,
2013-05-30 13:44:00,61.7,33.1,30.08,East,89,0.0,5.8,34,0.00,,SCT,0.00,VWS V14.01,2013-05-30 20:44:00,
2013-05-30 13:45:00,61.5,32.9,30.08,NW,321,4.9,8.1,34,0.00,,SCT,0.00,VWS V14.01,2013-05-30 20:45:00,
2013-05-30 13:49:00,61.3,32.8,30.08,NW,312,0.0,4.9,34,0.00,,SCT,0.00,VWS V14.01,2013-05-30 20:49:00,
2013-05-30 13:54:00,61.5,32.9,30.08,WNW,286,0.0,7.6,34,0.00,,SCT,0.00,VWS V14.01,2013-05-30 20:54:00,
2013-05-30 14:00:00,58.1,31.3,100.00,SE,126,0.0,6.3,36,0.00,,SCT,0.00,VWS V14.01,2013-05-30 21:00:00,
2013-05-30 14:11:00,63.7,34.1,30.08,NNW,335,6.7,6.7,33,0.00,,SCT,0.00,VWS V14.01,2013-05-30 21:11:00,
2013-05-30 14:15:00,63.5,33.1,30.08,NW,312,4.9,8.3,32,0.00,,SCT,0.00,VWS V14.01,2013-05-30 21:15:00,
2013-05-30 14:16:00,63.7,34.1,30.08,NNW,340,0.0,4.9,33,0.00,,SCT,0.00,VWS V14.01,2013-05-30 21:16:00,
2013-05-30 14:21:00,64.0,33.6,30.08,SSW,202,2.7,5.8,32,0.00,,SCT,0.00,VWS V14.01,2013-05-30 21:21:00,
2013-05-30 14:26:00,64.2,34.5,30.08,WSW,241,0.0,7.6,33,0.00,,SCT,0.00,VWS V14.01,2013-05-30 21:26:00,
2013-05-30 14:30:00,64.2,34.5,30.08,NNW,336,0.0,7.6,33,0.00,,SCT,0.00,VWS V14.01,2013-05-30 21:30:00,
2013-05-30 14:32:00,64.4,34.7,30.08,NNW,335,2.2,2.7,33,0.00,,SCT,0.00,VWS V14.01,2013-05-30 21:32:00,
2013-05-30 14:37:00,65.3,35.5,30.08,WNW,288,2.2,9.6,33,0.00,,SCT,0.00,VWS V14.01,2013-05-30 21:37:00,
2013-05-30 14:42:00,65.3,35.5,30.08,NNE,18,2.7,10.1,33,0.00,,SCT,0.00,VWS V14.01,2013-05-30 21:42:00,
2013-05-30 14:45:00,65.5,35.6,30.08,NNW,328,3.6,10.1,33,0.00,,SCT,0.00,VWS V14.01,2013-05-30 21:45:00,
2013-05-30 14:47:00,65.8,36.0,30.08,North,349,2.2,7.6,33,0.00,,SCT,0.00,VWS V14.01,2013-05-30 21:47:00,
2013-05-30 14:52:00,66.0,36.1,30.08,NNW,339,2.2,7.6,33,0.00,,SCT,0.00,VWS V14.01,2013-05-30 21:52:00,
2013-05-30 14:57:00,66.2,34.7,30.08,West,272,0.0,7.6,31,0.00,,SCT,0.00,VWS V14.01,2013-05-30 21:57:00,
2013-05-30 15:00:00,66.2,34.7,30.08,NNW,328,5.8,11.0,31,0.00,,SCT,0.00,VWS V14.01,2013-05-30 22:00:00,
2013-05-30 15:02:00,66.0,34.5,30.08,SW,226,0.0,6.3,31,0.00,,SCT,0.00,VWS V14.01,2013-05-30 22:02:00,
2013-05-30 15:07:00,66.0,35.3,30.08,SW,229,0.0,7.6,32,0.00,,SCT,0.00,VWS V14.01,2013-05-30 22:07:00,
2013-05-30 15:12:00,66.0,35.3,30.08,NW,306,10.1,10.5,32,0.00,,SCT,0.00,VWS V14.01,2013-05-30 22:12:00,
2013-05-30 15:15:00,65.8,35.2,30.08,NW,308,0.0,10.5,32,0.00,,SCT,0.00,VWS V14.01,2013-05-30 22:15:00,
2013-05-30 15:17:00,65.8,34.4,30.08,NW,311,4.0,9.6,31,0.00,,SCT,0.00,VWS V14.01,2013-05-30 22:17:00,
2013-05-30 15:22:00,65.7,35.0,30.08,WNW,292,0.0,10.1,32,0.00,,SCT,0.00,VWS V14.01,2013-05-30 22:22:00,
2013-05-30 15:27:00,66.0,35.3,30.08,ESE,114,0.0,10.1,32,0.00,,SCT,0.00,VWS V14.01,2013-05-30 22:27:00,
2013-05-30 15:30:00,66.0,35.3,30.08,NNW,339,2.7,10.1,32,0.00,,SCT,0.00,VWS V14.01,2013-05-30 22:30:00,
2013-05-30 15:33:00,66.0,35.3,30.08,NNW,329,7.6,7.6,32,0.00,,SCT,0.00,VWS V14.01,2013-05-30 22:33:00,
2013-05-30 15:38:00,66.4,35.7,30.08,SSW,209,0.0,7.6,32,0.00,,SCT,0.00,VWS V14.01,2013-05-30 22:38:00,
2013-05-30 15:43:00,66.6,35.0,30.08,North,3,4.5,7.6,31,0.00,,SCT,0.00,VWS V14.01,2013-05-30 22:43:00,
2013-05-30 15:45:00,66.4,34.9,30.08,NNW,340,6.3,7.6,31,0.00,,SCT,0.00,VWS V14.01,2013-05-30 22:45:00,
2013-05-30 15:48:00,66.4,34.9,30.08,East,96,0.0,8.7,31,0.00,,SCT,0.00,VWS V14.01,2013-05-30 22:48:00,
2013-05-30 15:53:00,66.7,36.0,30.08,NNW,332,5.8,8.7,32,0.00,,SCT,0.00,VWS V14.01,2013-05-30 22:53:00,
2013-05-30 15:58:00,66.7,35.2,30.08,North,357,10.1,11.4,31,0.00,,SCT,0.00,VWS V14.01,2013-05-30 22:58:00,
2013-05-30 16:00:00,66.7,35.2,30.08,NNE,30,0.0,11.4,31,0.00,,SCT,0.00,VWS V14.01,2013-05-30 23:00:00,
2013-05-30 16:03:00,66.7,34.3,30.08,WNW,303,4.0,11.0,30,0.00,,SCT,0.00,VWS V14.01,2013-05-30 23:03:00,
2013-05-30 16:08:00,66.4,34.9,30.08,South,171,0.0,11.0,31,0.00,,SCT,0.00,VWS V14.01,2013-05-30 23:08:00,
2013-05-30 16:13:00,66.7,35.2,30.08,WNW,290,5.8,11.0,31,0.00,,SCT,0.00,VWS V14.01,2013-05-30 23:13:00,
2013-05-30 16:15:00,66.6,34.2,30.08,NE,56,5.4,11.0,30,0.00,,SCT,0.00,VWS V14.01,2013-05-30 23:15:00,
2013-05-30 16:18:00,66.4,34.9,30.08,NNE,26,0.0,6.3,31,0.00,,SCT,0.00,VWS V14.01,2013-05-30 23:18:00,
2013-05-30 16:23:00,65.5,34.1,30.11,NW,321,2.2,7.6,31,0.00,,SCT,0.00,VWS V14.01,2013-05-30 23:23:00,
2013-05-30 16:28:00,64.4,33.9,30.11,SE,126,0.0,10.1,32,0.00,,SCT,0.00,VWS V14.01,2013-05-30 23:28:00,
2013-05-30 16:30:00,64.2,33.8,30.11,WNW,298,7.2,10.1,32,0.00,,SCT,0.00,VWS V14.01,2013-05-30 23:30:00,
2013-05-30 16:33:00,63.5,33.1,30.11,NW,309,4.9,7.2,32,0.00,,SCT,0.00,VWS V14.01,2013-05-30 23:33:00,
2013-05-30 16:38:00,63.0,32.7,30.11,WNW,287,4.9,7.2,32,0.00,,SCT,0.00,VWS V14.01,2013-05-30 23:38:00,
2013-05-30 16:44:00,63.7,33.3,30.11,NW,312,5.8,12.8,32,0.00,,SCT,0.00,VWS V14.01,2013-05-30 23:44:00,
2013-05-30 16:45:00,63.7,33.3,30.11,NW,315,2.2,12.8,32,0.00,,SCT,0.00,VWS V14.01,2013-05-30 23:45:00,
2013-05-30 16:49:00,63.9,34.2,30.11,NNE,30,0.0,12.3,33,0.00,,SCT,0.00,VWS V14.01,2013-05-30 23:49:00,
2013-05-30 16:54:00,64.4,33.1,30.11,NNW,345,4.9,12.3,31,0.00,,SCT,0.00,VWS V14.01,2013-05-30 23:54:00,
2013-05-30 16:59:00,64.0,33.6,30.11,NNW,334,0.0,12.3,32,0.00,,SCT,0.00,VWS V14.01,2013-05-30 23:59:00,
2013-05-30 17:00:00,64.0,33.6,30.11,WSW,241,5.8,12.3,32,0.00,,SCT,0.00,VWS V14.01,2013-05-31 00:00:00,
2013-05-30 17:04:00,63.9,33.5,30.11,NNW,332,3.6,10.5,32,0.00,,SCT,0.00,VWS V14.01,2013-05-31 00:04:00,
2013-05-30 17:09:00,63.7,32.5,30.11,North,353,4.0,10.5,31,0.00,,SCT,0.00,VWS V14.01,2013-05-31 00:09:00,
2013-05-30 17:14:00,63.9,34.2,30.11,NW,307,0.0,10.5,33,0.00,,SCT,0.00,VWS V14.01,2013-05-31 00:14:00,
2013-05-30 17:15:00,63.9,33.5,30.11,South,187,0.0,10.5,32,0.00,,SCT,0.00,VWS V14.01,2013-05-31 00:15:00,
2013-05-30 17:19:00,64.2,33.8,30.11,South,180,0.0,6.7,32,0.00,,SCT,0.00,VWS V14.01,2013-05-31 00:19:00,
2013-05-30 17:24:00,64.6,33.3,30.11,West,268,0.0,8.7,31,0.00,,SCT,0.00,VWS V14.01,2013-05-31 00:24:00,
2013-05-30 17:29:00,64.4,33.1,30.11,NW,315,3.6,8.7,31,0.00,,SCT,0.00,VWS V14.01,2013-05-31 00:29:00,
2013-05-30 17:30:00,64.4,33.1,30.11,SW,220,2.2,8.7,31,0.00,,SCT,0.00,VWS V14.01,2013-05-31 00:30:00,
2013-05-30 17:34:00,64.4,32.3,30.11,SSE,160,0.0,4.9,30,0.00,,SCT,0.00,VWS V14.01,2013-05-31 00:34:00,
2013-05-30 17:39:00,64.0,32.8,30.11,NNE,17,2.7,7.6,31,0.00,,SCT,0.00,VWS V14.01,2013-05-31 00:39:00,
2013-05-30 17:44:00,63.7,32.5,30.11,NNW,327,0.0,7.6,31,0.00,,SCT,0.00,VWS V14.01,2013-05-31 00:44:00,
2013-05-30 17:45:00,63.7,32.5,30.11,NNW,328,2.7,7.6,31,0.00,,SCT,0.00,VWS V14.01,2013-05-31 00:45:00,
2013-05-30 17:49:00,63.9,32.7,30.11,NNW,334,0.0,7.2,31,0.00,,SCT,0.00,VWS V14.01,2013-05-31 00:49:00,
2013-05-30 17:55:00,63.9,32.7,30.11,WSW,257,0.0,9.6,31,0.00,,SCT,0.00,VWS V14.01,2013-05-31 00:55:00,
2013-05-30 18:00:00,63.7,31.7,30.11,South,178,0.0,10.1,30,0.00,,SCT,0.00,VWS V14.01,2013-05-31 01:00:00,
2013-05-30 18:05:00,63.1,31.2,30.11,West,273,4.9,8.7,30,0.00,,SCT,0.00,VWS V14.01,2013-05-31 01:05:00,
2013-05-30 18:10:00,63.1,31.2,30.11,NW,323,0.0,8.7,30,0.00,,SCT,0.00,VWS V14.01,2013-05-31 01:10:00,
2013-05-30 18:15:00,63.1,31.2,30.11,NNW,341,6.3,8.7,30,0.00,,SCT,0.00,VWS V14.01,2013-05-31 01:15:00,
2013-05-30 18:20:00,63.1,31.2,30.11,NNW,339,0.0,6.7,30,0.00,,SCT,0.00,VWS V14.01,2013-05-31 01:20:00,
2013-05-30 18:25:00,62.2,31.2,30.11,North,0,5.8,8.7,31,0.00,,SCT,0.00,VWS V14.01,2013-05-31 01:25:00,
2013-05-30 18:30:00,61.9,30.9,30.11,WNW,299,4.0,4.0,31,0.00,,SCT,0.00,VWS V14.01,2013-05-31 01:30:00,
2013-05-30 18:35:00,61.2,30.3,30.11,NNW,337,5.4,8.3,31,0.00,,SCT,0.00,VWS V14.01,2013-05-31 01:35:00,
2013-05-30 18:40:00,61.0,30.2,30.11,West,266,0.0,10.5,31,0.00,,SCT,0.00,VWS V14.01,2013-05-31 01:40:00,
2013-05-30 18:45:00,60.8,30.0,30.11,WSW,257,0.0,3.1,31,0.00,,SCT,0.00,VWS V14.01,2013-05-31 01:45:00,
2013-05-30 18:50:00,60.4,30.5,30.11,NW,304,3.1,8.7,32,0.00,,SCT,0.00,VWS V14.01,2013-05-31 01:50:00,
2013-05-30 18:55:00,60.3,30.3,30.11,North,353,2.7,8.7,32,0.00,,SCT,0.00,VWS V14.01,2013-05-31 01:55:00,
2013-05-30 19:00:00,59.9,30.0,30.11,West,276,4.5,4.9,32,0.00,,SCT,0.00,VWS V14.01,2013-05-31 02:00:00,
2013-05-30 19:06:00,59.4,30.3,30.14,West,275,0.0,11.9,33,0.00,,SCT,0.00,VWS V14.01,2013-05-31 02:06:00,
2013-05-30 19:11:00,59.4,31.0,30.14,WNW,303,4.0,11.9,34,0.00,,SCT,0.00,VWS V14.01,2013-05-31 02:11:00,
2013-05-30 19:15:00,59.0,30.0,30.14,NNW,329,0.0,11.9,33,0.00,,SCT,0.00,VWS V14.01,2013-05-31 02:15:00,
2013-05-30 19:16:00,58.8,29.8,30.14,NNW,333,3.1,4.9,33,0.00,,SCT,0.00,VWS V14.01,2013-05-31 02:16:00,
2013-05-30 19:21:00,58.6,30.4,30.14,West,260,2.2,7.2,34,0.00,,SCT,0.00,VWS V14.01,2013-05-31 02:21:00,
2013-05-30 19:26:00,58.6,30.4,30.14,NNW,330,0.0,7.2,34,0.00,,SCT,0.00,VWS V14.01,2013-05-31 02:26:00,
2013-05-30 19:30:00,58.6,31.1,30.14,WSW,241,0.0,7.2,35,0.00,,SCT,0.00,VWS V14.01,2013-05-31 02:30:00,
2013-05-30 19:31:00,58.5,30.2,30.14,NW,312,0.0,7.6,34,0.00,,SCT,0.00,VWS V14.01,2013-05-31 02:31:00,
2013-05-30 19:36:00,57.9,29.7,30.14,NW,325,4.0,8.7,34,0.00,,SCT,0.00,VWS V14.01,2013-05-31 02:36:00,
2013-05-30 19:41:00,57.7,30.3,30.14,NNW,332,5.4,8.7,35,0.00,,SCT,0.00,VWS V14.01,2013-05-31 02:41:00,
2013-05-30 19:45:00,57.4,30.0,30.14,NW,316,2.7,8.7,35,0.00,,SCT,0.00,VWS V14.01,2013-05-31 02:45:00,
2013-05-30 19:46:00,57.4,30.0,30.14,NNW,333,2.7,2.7,35,0.00,,SCT,0.00,VWS V14.01,2013-05-31 02:46:00,
2013-05-30 19:51:00,57.4,30.0,30.14,NE,40,2.7,4.9,35,0.00,,SCT,0.00,VWS V14.01,2013-05-31 02:51:00,
2013-05-30 19:56:00,56.7,29.3,30.14,NNW,328,0.0,6.3,35,0.00,,SCT,0.00,VWS V14.01,2013-05-31 02:56:00,
2013-05-30 20:00:00,56.3,29.0,30.14,WNW,284,0.0,6.3,35,0.00,,SCT,0.00,VWS V14.01,2013-05-31 03:00:00,
2013-05-30 20:01:00,56.3,29.7,30.14,NW,322,3.1,3.1,36,0.00,,SCT,0.00,VWS V14.01,2013-05-31 03:01:00,
2013-05-30 20:07:00,56.3,29.7,30.14,NW,325,0.0,6.3,36,0.00,,SCT,0.00,VWS V14.01,2013-05-31 03:07:00,
2013-05-30 20:12:00,55.8,29.2,30.14,NW,319,2.7,6.3,36,0.00,,SCT,0.00,VWS V14.01,2013-05-31 03:12:00,
2013-05-30 20:15:00,55.2,28.8,30.14,NNW,338,4.0,6.7,36,0.00,,SCT,0.00,VWS V14.01,2013-05-31 03:15:00,
2013-05-30 20:17:00,55.0,28.6,30.14,NW,312,3.1,4.0,36,0.00,,SCT,0.00,VWS V14.01,2013-05-31 03:17:00,
2013-05-30 20:22:00,54.5,28.8,30.14,NW,321,6.3,7.6,37,0.00,,SCT,0.00,VWS V14.01,2013-05-31 03:22:00,
2013-05-30 20:27:00,54.0,29.0,30.14,NNW,341,0.0,7.6,38,0.00,,SCT,0.00,VWS V14.01,2013-05-31 03:27:00,
2013-05-30 20:30:00,53.8,28.8,30.14,WNW,287,2.2,7.6,38,0.00,,SCT,0.00,VWS V14.01,2013-05-31 03:30:00,
2013-05-30 20:32:00,53.4,29.1,30.14,WNW,303,0.0,2.2,39,0.00,,SCT,0.00,VWS V14.01,2013-05-31 03:32:00,
2013-05-30 20:37:00,52.9,28.6,30.14,NNW,334,0.0,3.6,39,0.00,,SCT,0.00,VWS V14.01,2013-05-31 03:37:00,
2013-05-30 20:42:00,52.5,28.9,30.14,NW,323,0.0,3.6,40,0.00,,SCT,0.00,VWS V14.01,2013-05-31 03:42:00,
2013-05-30 20:45:00,52.3,29.4,30.14,NW,323,0.0,3.6,41,0.00,,SCT,0.00,VWS V14.01,2013-05-31 03:45:00,
2013-05-30 20:47:00,52.0,29.6,30.14,NW,313,0.0,0.0,42,0.00,,SCT,0.00,VWS V14.01,2013-05-31 03:47:00,
2013-05-30 20:52:00,51.8,30.0,30.14,NW,319,0.0,0.0,43,0.00,,SCT,0.00,VWS V14.01,2013-05-31 03:52:00,
2013-05-30 20:57:00,51.3,30.1,30.14,NNW,328,0.0,0.0,44,0.00,,SCT,0.00,VWS V14.01,2013-05-31 03:57:00,
2013-05-30 21:00:00,51.1,30.5,30.14,NNW,328,0.0,0.0,45,0.00,,SCT,0.00,VWS V14.01,2013-05-31 04:00:00,
2013-05-30 21:01:00,51.1,30.5,30.14,NW,324,0.0,0.0,45,0.00,,SCT,0.00,VWS V14.01,2013-05-31 04:01:00,
2013-05-30 21:02:00,50.9,30.3,30.14,NW,324,0.0,0.0,45,0.00,,SCT,0.00,VWS V14.01,2013-05-31 04:02:00,
2013-05-30 21:07:00,50.5,30.5,30.16,NNW,344,0.0,0.0,46,0.00,,SCT,0.00,VWS V14.01,2013-05-31 04:07:00,
2013-05-30 21:12:00,50.2,30.8,30.16,NNW,328,0.0,0.0,47,0.00,,SCT,0.00,VWS V14.01,2013-05-31 04:12:00,
2013-05-30 21:15:00,50.2,30.8,30.16,NNW,330,0.0,0.0,47,0.00,,SCT,0.00,VWS V14.01,2013-05-31 04:15:00,
2013-05-30 21:17:00,49.8,30.4,30.16,NNW,330,0.0,0.0,47,0.00,,SCT,0.00,VWS V14.01,2013-05-31 04:17:00,
2013-05-30 21:23:00,49.6,30.8,30.16,NNW,329,0.0,0.0,48,0.00,,SCT,0.00,VWS V14.01,2013-05-31 04:23:00,
2013-05-30 21:28:00,49.5,30.6,30.16,North,0,0.0,0.0,48,0.00,,SCT,0.00,VWS V14.01,2013-05-31 04:28:00,
2013-05-30 21:30:00,49.3,30.4,30.16,North,0,0.0,0.0,48,0.00,,SCT,0.00,VWS V14.01,2013-05-31 04:30:00,
2013-05-30 21:33:00,49.1,30.3,30.16,NNW,329,0.0,0.0,48,0.00,,SCT,0.00,VWS V14.01,2013-05-31 04:33:00,
2013-05-30 21:38:00,48.7,30.5,30.16,NNW,335,0.0,0.0,49,0.00,,SCT,0.00,VWS V14.01,2013-05-31 04:38:00,
2013-05-30 21:43:00,48.4,30.6,30.16,NNW,327,0.0,0.0,50,0.00,,SCT,0.00,VWS V14.01,2013-05-31 04:43:00,
2013-05-30 21:45:00,48.4,31.1,30.16,NW,325,0.0,0.0,51,0.00,,SCT,0.00,VWS V14.01,2013-05-31 04:45:00,
2013-05-30 21:48:00,48.2,30.9,30.16,NW,326,0.0,0.0,51,0.00,,SCT,0.00,VWS V14.01,2013-05-31 04:48:00,
2013-05-30 21:53:00,47.8,31.1,30.16,NNW,327,0.0,0.0,52,0.00,,SCT,0.00,VWS V14.01,2013-05-31 04:53:00,
2013-05-30 21:58:00,47.7,31.4,30.16,NNW,330,0.0,0.0,53,0.00,,SCT,0.00,VWS V14.01,2013-05-31 04:58:00,
2013-05-30 22:00:00,47.7,31.4,30.16,NNW,330,0.0,0.0,53,0.00,,SCT,0.00,VWS V14.01,2013-05-31 05:00:00,
2013-05-30 22:03:00,47.3,31.0,30.16,NW,324,0.0,0.0,53,0.00,,SCT,0.00,VWS V14.01,2013-05-31 05:03:00,
2013-05-30 22:08:00,47.3,31.5,30.16,NW,324,0.0,0.0,54,0.00,,SCT,0.00,VWS V14.01,2013-05-31 05:08:00,
2013-05-30 22:13:00,46.9,31.2,30.16,NW,324,0.0,0.0,54,0.00,,SCT,0.00,VWS V14.01,2013-05-31 05:13:00,
2013-05-30 22:15:00,46.9,31.6,30.16,NW,324,0.0,0.0,55,0.00,,SCT,0.00,VWS V14.01,2013-05-31 05:15:00,
2013-05-30 22:18:00,46.8,31.9,30.16,NNW,336,0.0,0.0,56,0.00,,SCT,0.00,VWS V14.01,2013-05-31 05:18:00,
2013-05-30 22:24:00,46.6,31.7,30.16,NNW,336,0.0,0.0,56,0.00,,SCT,0.00,VWS V14.01,2013-05-31 05:24:00,
2013-05-30 22:29:00,46.4,32.0,30.16,NNW,336,0.0,0.0,57,0.00,,SCT,0.00,VWS V14.01,2013-05-31 05:29:00,
2013-05-30 22:30:00,46.4,32.0,30.16,NNW,336,0.0,0.0,57,0.00,,SCT,0.00,VWS V14.01,2013-05-31 05:30:00,
2013-05-30 22:34:00,46.4,32.0,30.16,NNW,336,0.0,0.0,57,0.00,,SCT,0.00,VWS V14.01,2013-05-31 05:34:00,
2013-05-30 22:39:00,46.2,31.8,30.16,NNW,336,0.0,0.0,57,0.00,,SCT,0.00,VWS V14.01,2013-05-31 05:39:00,
2013-05-30 22:44:00,46.4,32.0,30.16,NNW,336,0.0,0.0,57,0.00,,SCT,0.00,VWS V14.01,2013-05-31 05:44:00,
2013-05-30 22:45:00,46.4,32.0,30.16,NNW,336,0.0,0.0,57,0.00,,SCT,0.00,VWS V14.01,2013-05-31 05:45:00,
2013-05-30 22:49:00,46.6,32.2,30.16,NNW,336,0.0,0.0,57,0.00,,SCT,0.00,VWS V14.01,2013-05-31 05:49:00,
2013-05-30 22:54:00,46.6,32.2,30.16,NNW,336,0.0,0.0,57,0.00,,SCT,0.00,VWS V14.01,2013-05-31 05:54:00,
2013-05-30 22:59:00,46.2,31.8,30.16,NNW,336,0.0,0.0,57,0.00,,SCT,0.00,VWS V14.01,2013-05-31 05:59:00,
2013-05-30 23:00:00,46.2,31.8,30.16,NNW,336,0.0,0.0,57,0.00,,SCT,0.00,VWS V14.01,2013-05-31 06:00:00,
2013-05-30 23:04:00,46.0,31.7,30.19,NNW,336,0.0,0.0,57,0.00,,SCT,0.00,VWS V14.01,2013-05-31 06:04:00,
2013-05-30 23:09:00,45.7,32.2,30.19,NNW,336,0.0,0.0,59,0.00,,SCT,0.00,VWS V14.01,2013-05-31 06:09:00,
2013-05-30 23:14:00,45.5,32.8,30.19,NNW,336,0.0,0.0,61,0.00,,SCT,0.00,VWS V14.01,2013-05-31 06:14:00,
2013-05-30 23:15:00,45.5,32.8,30.19,NNW,336,0.0,0.0,61,0.00,,SCT,0.00,VWS V14.01,2013-05-31 06:15:00,
2013-05-30 23:19:00,45.3,32.7,30.19,NNW,336,0.0,0.0,61,0.00,,SCT,0.00,VWS V14.01,2013-05-31 06:19:00,
2013-05-30 23:24:00,45.1,32.9,30.19,NNW,336,0.0,0.0,62,0.00,,SCT,0.00,VWS V14.01,2013-05-31 06:24:00,
2013-05-30 23:29:00,44.8,32.6,30.19,NNW,336,0.0,0.0,62,0.00,,SCT,0.00,VWS V14.01,2013-05-31 06:29:00,
2013-05-30 23:30:00,44.8,32.6,30.19,NNW,336,0.0,0.0,62,0.00,,SCT,0.00,VWS V14.01,2013-05-31 06:30:00,
2013-05-30 23:34:00,44.8,32.6,30.19,NNW,336,0.0,0.0,62,0.00,,SCT,0.00,VWS V14.01,2013-05-31 06:34:00,
2013-05-30 23:40:00,44.6,32.4,30.19,NNW,336,0.0,0.0,62,0.00,,SCT,0.00,VWS V14.01,2013-05-31 06:40:00,
2013-05-30 23:45:00,44.4,32.6,30.19,NNW,336,0.0,0.0,63,0.00,,SCT,0.00,VWS V14.01,2013-05-31 06:45:00,
2013-05-30 23:50:00,44.2,32.8,30.19,NNW,336,0.0,0.0,64,0.00,,SCT,0.00,VWS V14.01,2013-05-31 06:50:00,
2013-05-30 23:55:00,44.1,32.7,30.19,NNW,336,0.0,0.0,64,0.00,,SCT,0.00,VWS V14.01,2013-05-31 06:55:00,